Time,TemperatureF,DewpointF,PressureIn,WindDirection,WindDirectionDegrees,WindSpeedMPH,WindSpeedGustMPH,Humidity,HourlyPrecipIn,Conditions,Clouds,dailyrainin,SolarRadiationWatts/m^2,SoftwareType,DateUTC
2017-04-23 00:05:00,57.5,54.6,29.10,North,32767,0.0,0.0,90,0.00,,,0.01,0,Wunderground v.1.15,2017-04-23 04:05:00,
2017-04-23 00:11:00,57.2,54.3,29.11,North,32767,0.0,0.0,90,0.00,,,0.01,0,Wunderground v.1.15,2017-04-23 04:11:00,
2017-04-23 00:16:00,57.1,54.2,29.10,North,32767,0.0,0.0,90,0.04,,,0.02,0,Wunderground v.1.15,2017-04-23 04:16:00,
2017-04-23 00:22:00,56.9,54.3,29.11,North,32767,0.0,0.0,91,0.35,,,0.04,0,Wunderground v.1.15,2017-04-23 04:22:00,
2017-04-23 00:28:00,56.5,53.9,29.11,North,32767,0.0,0.0,91,0.11,,,0.06,0,Wunderground v.1.15,2017-04-23 04:28:00,
2017-04-23 00:34:00,56.0,53.7,29.10,North,32767,0.0,0.0,92,0.31,,,0.09,0,Wunderground v.1.15,2017-04-23 04:34:00,
2017-04-23 00:40:00,55.7,53.4,29.11,North,32767,0.0,0.0,92,0.37,,,0.12,0,Wunderground v.1.15,2017-04-23 04:40:00,
2017-04-23 00:46:00,55.4,53.4,29.11,North,32767,0.0,0.0,93,0.35,,,0.16,0,Wunderground v.1.15,2017-04-23 04:46:00,
2017-04-23 00:52:00,55.3,53.3,29.11,North,32767,0.0,0.0,93,0.68,,,0.19,0,Wunderground v.1.15,2017-04-23 04:52:00,
2017-04-23 00:58:00,55.2,53.2,29.10,North,32767,0.0,0.0,93,0.22,,,0.22,0,Wunderground v.1.15,2017-04-23 04:58:00,
2017-04-23 01:05:00,55.1,53.1,29.11,North,32767,0.0,0.0,93,0.08,,,0.23,0,Wunderground v.1.15,2017-04-23 05:05:00,
2017-04-23 01:10:00,55.1,53.4,29.10,North,32767,0.0,0.0,94,0.34,,,0.26,0,Wunderground v.1.15,2017-04-23 05:10:00,
2017-04-23 01:18:00,54.8,53.1,29.09,North,32767,0.0,0.0,94,0.14,,,0.28,0,Wunderground v.1.15,2017-04-23 05:18:00,
2017-04-23 01:24:00,54.7,53.0,29.09,North,32767,0.0,0.0,94,0.19,,,0.30,0,Wunderground v.1.15,2017-04-23 05:24:00,
2017-04-23 01:30:00,54.6,52.9,29.10,North,32767,0.0,0.0,94,0.09,,,0.30,0,Wunderground v.1.15,2017-04-23 05:30:00,
2017-04-23 01:35:00,54.6,52.9,29.10,North,32767,0.0,0.0,94,0.05,,,0.30,0,Wunderground v.1.15,2017-04-23 05:35:00,
2017-04-23 01:40:00,54.5,52.8,29.10,North,32767,0.0,0.0,94,0.04,,,0.31,0,Wunderground v.1.15,2017-04-23 05:40:00,
2017-04-23 01:46:00,54.3,52.6,29.09,North,32767,0.0,0.0,94,0.04,,,0.31,0,Wunderground v.1.15,2017-04-23 05:46:00,
2017-04-23 01:51:00,54.2,52.5,29.09,North,32767,0.0,0.0,94,0.04,,,0.31,0,Wunderground v.1.15,2017-04-23 05:51:00,
2017-04-23 01:56:00,54.1,52.4,29.08,North,32767,0.0,0.0,94,0.00,,,0.31,0,Wunderground v.1.15,2017-04-23 05:56:00,
2017-04-23 02:02:00,54.0,52.3,29.09,North,32767,0.0,0.0,94,0.00,,,0.31,0,Wunderground v.1.15,2017-04-23 06:02:00,
2017-04-23 02:07:00,53.9,52.2,29.10,North,32767,0.0,0.0,94,0.00,,,0.31,0,Wunderground v.1.15,2017-04-23 06:07:00,
2017-04-23 02:13:00,53.8,52.1,29.10,North,32767,0.0,0.0,94,0.00,,,0.31,0,Wunderground v.1.15,2017-04-23 06:13:00,
2017-04-23 02:19:00,53.8,52.1,29.09,North,32767,0.0,0.0,94,0.00,,,0.31,0,Wunderground v.1.15,2017-04-23 06:19:00,
2017-04-23 02:24:00,53.8,52.1,29.09,North,32767,0.0,0.0,94,0.00,,,0.31,0,Wunderground v.1.15,2017-04-23 06:24:00,
2017-04-23 02:30:00,53.8,52.1,29.09,North,32767,0.0,0.0,94,0.00,,,0.31,0,Wunderground v.1.15,2017-04-23 06:30:00,
2017-04-23 02:36:00,53.7,52.0,29.09,North,32767,0.0,0.0,94,0.00,,,0.31,0,Wunderground v.1.15,2017-04-23 06:36:00,
2017-04-23 02:42:00,53.7,52.0,29.10,North,32767,0.0,0.0,94,0.00,,,0.31,0,Wunderground v.1.15,2017-04-23 06:42:00,
2017-04-23 02:48:00,53.8,52.1,29.09,North,32767,0.0,0.0,94,0.00,,,0.31,0,Wunderground v.1.15,2017-04-23 06:48:00,
2017-04-23 02:53:00,53.7,52.0,29.08,North,32767,0.0,0.0,94,0.00,,,0.31,0,Wunderground v.1.15,2017-04-23 06:53:00,
2017-04-23 02:59:00,53.8,52.1,29.08,North,32767,0.0,0.0,94,0.00,,,0.31,0,Wunderground v.1.15,2017-04-23 06:59:00,
2017-04-23 03:05:00,53.9,52.5,29.08,North,32767,0.0,0.0,95,0.00,,,0.31,0,Wunderground v.1.15,2017-04-23 07:05:00,
2017-04-23 03:10:00,53.7,52.0,29.07,North,32767,0.0,0.0,94,0.00,,,0.31,0,Wunderground v.1.15,2017-04-23 07:10:00,
2017-04-23 03:15:00,53.7,52.0,29.07,North,32767,0.0,0.0,94,0.00,,,0.31,0,Wunderground v.1.15,2017-04-23 07:15:00,
2017-04-23 03:21:00,53.6,51.9,29.07,North,32767,0.0,0.0,94,0.00,,,0.31,0,Wunderground v.1.15,2017-04-23 07:21:00,
2017-04-23 03:26:00,53.8,52.4,29.07,North,32767,0.0,0.0,95,0.00,,,0.31,0,Wunderground v.1.15,2017-04-23 07:26:00,
2017-04-23 03:31:00,53.7,52.3,29.06,North,32767,0.0,0.0,95,0.00,,,0.31,0,Wunderground v.1.15,2017-04-23 07:31:00,
2017-04-23 03:36:00,53.6,51.9,29.06,North,32767,0.0,0.0,94,0.00,,,0.31,0,Wunderground v.1.15,2017-04-23 07:36:00,
2017-04-23 03:42:00,53.5,51.8,29.06,North,32767,0.0,0.0,94,0.00,,,0.31,0,Wunderground v.1.15,2017-04-23 07:42:00,
2017-04-23 03:47:00,53.4,51.7,29.06,North,32767,0.0,0.0,94,0.00,,,0.31,0,Wunderground v.1.15,2017-04-23 07:47:00,
2017-04-23 03:53:00,53.4,52.0,29.06,North,32767,0.0,0.0,95,0.00,,,0.31,0,Wunderground v.1.15,2017-04-23 07:53:00,
2017-04-23 03:58:00,53.2,51.8,29.06,North,32767,0.0,0.0,95,0.00,,,0.31,0,Wunderground v.1.15,2017-04-23 07:58:00,
2017-04-23 04:03:00,53.2,51.8,29.07,North,32767,0.0,0.0,95,0.00,,,0.31,0,Wunderground v.1.15,2017-04-23 08:03:00,
2017-04-23 04:08:00,53.2,51.8,29.07,North,32767,0.0,0.0,95,0.00,,,0.31,0,Wunderground v.1.15,2017-04-23 08:08:00,
2017-04-23 04:13:00,53.2,51.8,29.07,North,32767,0.0,0.0,95,0.00,,,0.31,0,Wunderground v.1.15,2017-04-23 08:13:00,
2017-04-23 04:18:00,53.2,51.8,29.07,North,32767,0.0,0.0,95,0.00,,,0.31,0,Wunderground v.1.15,2017-04-23 08:18:00,
2017-04-23 04:24:00,53.1,51.7,29.07,North,32767,0.0,0.0,95,0.00,,,0.31,0,Wunderground v.1.15,2017-04-23 08:24:00,
2017-04-23 04:29:00,53.0,51.3,29.07,North,32767,0.0,0.0,94,0.00,,,0.31,0,Wunderground v.1.15,2017-04-23 08:29:00,
2017-04-23 04:35:00,53.0,51.6,29.07,North,32767,0.0,0.0,95,0.00,,,0.31,0,Wunderground v.1.15,2017-04-23 08:35:00,
2017-04-23 04:41:00,53.0,51.3,29.08,North,32767,0.0,0.0,94,0.00,,,0.31,0,Wunderground v.1.15,2017-04-23 08:41:00,
2017-04-23 04:47:00,53.0,51.6,29.08,North,32767,0.0,0.0,95,0.00,,,0.31,0,Wunderground v.1.15,2017-04-23 08:47:00,
2017-04-23 04:53:00,53.0,51.6,29.06,North,32767,0.0,0.0,95,0.00,,,0.31,0,Wunderground v.1.15,2017-04-23 08:53:00,
2017-04-23 04:58:00,53.0,51.6,29.06,North,32767,0.0,0.0,95,0.00,,,0.31,0,Wunderground v.1.15,2017-04-23 08:58:00,
2017-04-23 05:04:00,53.0,51.6,29.06,North,32767,0.0,0.0,95,0.00,,,0.31,0,Wunderground v.1.15,2017-04-23 09:04:00,
2017-04-23 05:09:00,53.0,51.6,29.07,North,32767,0.0,0.0,95,0.00,,,0.32,0,Wunderground v.1.15,2017-04-23 09:09:00,
2017-04-23 05:14:00,53.1,51.7,29.07,North,32767,0.0,0.0,95,0.38,,,0.35,0,Wunderground v.1.15,2017-04-23 09:14:00,
2017-04-23 05:20:00,53.0,51.6,29.07,North,32767,0.0,0.0,95,0.36,,,0.39,0,Wunderground v.1.15,2017-04-23 09:20:00,
2017-04-23 05:25:00,52.9,51.5,29.07,North,32767,0.0,0.0,95,0.27,,,0.42,0,Wunderground v.1.15,2017-04-23 09:25:00,
2017-04-23 05:30:00,52.9,51.5,29.07,North,32767,0.0,0.0,95,0.11,,,0.43,0,Wunderground v.1.15,2017-04-23 09:30:00,
2017-04-23 05:37:00,52.9,51.5,29.07,North,32767,0.0,0.0,95,0.09,,,0.43,0,Wunderground v.1.15,2017-04-23 09:37:00,
2017-04-23 05:42:00,52.9,51.5,29.07,North,32767,0.0,0.0,95,0.05,,,0.43,0,Wunderground v.1.15,2017-04-23 09:42:00,
2017-04-23 05:48:00,52.8,51.4,29.07,North,32767,0.0,0.0,95,0.05,,,0.44,0,Wunderground v.1.15,2017-04-23 09:48:00,
2017-04-23 05:54:00,52.8,51.4,29.07,North,32767,0.0,0.0,95,0.05,,,0.44,0,Wunderground v.1.15,2017-04-23 09:54:00,
2017-04-23 05:59:00,52.8,51.4,29.07,North,32767,0.0,0.0,95,0.04,,,0.44,0,Wunderground v.1.15,2017-04-23 09:59:00,
2017-04-23 06:04:00,52.7,51.3,29.08,North,32767,0.0,0.0,95,0.00,,,0.44,0,Wunderground v.1.15,2017-04-23 10:04:00,
2017-04-23 06:09:00,52.7,51.3,29.08,North,32767,0.0,0.0,95,0.00,,,0.45,0,Wunderground v.1.15,2017-04-23 10:09:00,
2017-04-23 06:15:00,52.7,51.3,29.08,North,32767,0.0,0.0,95,0.00,,,0.45,0,Wunderground v.1.15,2017-04-23 10:15:00,
2017-04-23 06:21:00,52.6,51.2,29.08,North,32767,0.0,0.0,95,0.05,,,0.46,0,Wunderground v.1.15,2017-04-23 10:21:00,
2017-04-23 06:26:00,52.5,51.1,29.08,North,32767,0.0,0.0,95,0.05,,,0.46,0,Wunderground v.1.15,2017-04-23 10:26:00,
2017-04-23 06:33:00,52.5,51.1,29.08,North,32767,0.0,0.0,95,0.04,,,0.46,0,Wunderground v.1.15,2017-04-23 10:33:00,
2017-04-23 06:38:00,52.6,51.2,29.08,North,32767,0.0,0.0,95,0.04,,,0.47,0,Wunderground v.1.15,2017-04-23 10:38:00,
2017-04-23 06:44:00,52.3,50.9,29.10,North,32767,0.0,0.0,95,0.06,,,0.48,0,Wunderground v.1.15,2017-04-23 10:44:00,
2017-04-23 06:49:00,52.2,50.8,29.10,North,32767,0.0,0.0,95,0.13,,,0.49,0,Wunderground v.1.15,2017-04-23 10:49:00,
2017-04-23 06:55:00,52.1,50.7,29.09,North,32767,0.0,0.0,95,0.12,,,0.50,0,Wunderground v.1.15,2017-04-23 10:55:00,
2017-04-23 07:02:00,52.1,50.7,29.10,North,32767,0.0,0.0,95,0.08,,,0.51,5,Wunderground v.1.15,2017-04-23 11:02:00,
2017-04-23 07:08:00,52.1,50.7,29.10,North,32767,0.0,0.0,95,0.07,,,0.51,7,Wunderground v.1.15,2017-04-23 11:08:00,
2017-04-23 07:09:00,52.1,50.7,29.10,North,32767,0.0,0.0,95,0.07,,,0.51,7,Wunderground v.1.15,2017-04-23 11:09:00,
2017-04-23 07:15:00,52.1,50.7,29.10,North,32767,0.0,0.0,95,0.06,,,0.52,9,Wunderground v.1.15,2017-04-23 11:15:00,
2017-04-23 07:20:00,52.0,50.6,29.10,North,32767,0.0,0.0,95,0.06,,,0.52,9,Wunderground v.1.15,2017-04-23 11:20:00,
2017-04-23 07:25:00,52.1,50.7,29.10,North,32767,0.0,0.0,95,0.04,,,0.52,14,Wunderground v.1.15,2017-04-23 11:25:00,
2017-04-23 07:31:00,51.8,50.4,29.10,North,32767,0.0,0.0,95,0.00,,,0.52,18,Wunderground v.1.15,2017-04-23 11:31:00,
2017-04-23 07:36:00,51.7,50.3,29.11,North,32767,0.0,0.0,95,0.00,,,0.53,19,Wunderground v.1.15,2017-04-23 11:36:00,
2017-04-23 07:42:00,51.8,50.4,29.11,North,32767,0.0,0.0,95,0.00,,,0.53,11,Wunderground v.1.15,2017-04-23 11:42:00,
2017-04-23 07:48:00,51.5,50.1,29.11,North,32767,0.0,0.0,95,0.00,,,0.53,9,Wunderground v.1.15,2017-04-23 11:48:00,
2017-04-23 07:54:00,51.2,49.8,29.11,North,32767,0.0,0.0,95,0.00,,,0.53,12,Wunderground v.1.15,2017-04-23 11:54:00,
2017-04-23 07:59:00,50.9,49.5,29.11,North,32767,0.0,0.0,95,0.00,,,0.53,16,Wunderground v.1.15,2017-04-23 11:59:00,
2017-04-23 08:05:00,50.6,49.2,29.12,North,32767,0.0,0.0,95,0.00,,,0.53,16,Wunderground v.1.15,2017-04-23 12:05:00,
2017-04-23 08:10:00,50.5,49.1,29.12,North,32767,0.0,0.0,95,0.00,,,0.53,16,Wunderground v.1.15,2017-04-23 12:10:00,
2017-04-23 08:16:00,50.5,49.1,29.13,North,32767,0.0,0.0,95,0.00,,,0.53,18,Wunderground v.1.15,2017-04-23 12:16:00,
2017-04-23 08:22:00,50.5,49.1,29.13,North,32767,0.0,0.0,95,0.00,,,0.54,19,Wunderground v.1.15,2017-04-23 12:22:00,
2017-04-23 08:27:00,50.3,48.9,29.12,North,32767,0.0,0.0,95,0.00,,,0.54,28,Wunderground v.1.15,2017-04-23 12:27:00,
2017-04-23 08:34:00,50.1,48.7,29.13,North,32767,0.0,0.0,95,0.06,,,0.55,39,Wunderground v.1.15,2017-04-23 12:34:00,
2017-04-23 08:39:00,50.0,48.6,29.13,North,32767,0.0,0.0,95,0.08,,,0.56,40,Wunderground v.1.15,2017-04-23 12:39:00,
2017-04-23 08:44:00,50.0,48.6,29.12,North,32767,0.0,0.0,95,0.08,,,0.56,46,Wunderground v.1.15,2017-04-23 12:44:00,
2017-04-23 08:50:00,49.9,48.5,29.12,North,32767,0.0,0.0,95,0.06,,,0.57,42,Wunderground v.1.15,2017-04-23 12:50:00,
2017-04-23 08:56:00,49.9,48.5,29.12,North,32767,0.0,0.0,95,0.06,,,0.57,39,Wunderground v.1.15,2017-04-23 12:56:00,
2017-04-23 09:02:00,50.0,48.6,29.13,North,32767,0.0,0.0,95,0.05,,,0.58,46,Wunderground v.1.15,2017-04-23 13:02:00,
2017-04-23 09:07:00,50.1,48.7,29.12,North,32767,0.0,0.0,95,0.08,,,0.59,63,Wunderground v.1.15,2017-04-23 13:07:00,
2017-04-23 09:13:00,50.2,49.1,29.12,North,32767,0.0,0.0,96,0.10,,,0.60,91,Wunderground v.1.15,2017-04-23 13:13:00,
2017-04-23 09:20:00,50.2,48.8,29.12,North,32767,0.0,0.0,95,0.08,,,0.60,76,Wunderground v.1.15,2017-04-23 13:20:00,
2017-04-23 09:25:00,50.3,49.2,29.12,North,32767,0.0,0.0,96,0.05,,,0.60,93,Wunderground v.1.15,2017-04-23 13:25:00,
2017-04-23 09:30:00,50.4,49.3,29.12,North,32767,0.0,0.0,96,0.00,,,0.60,100,Wunderground v.1.15,2017-04-23 13:30:00,
2017-04-23 09:36:00,50.4,49.3,29.12,North,32767,0.0,0.0,96,0.00,,,0.60,84,Wunderground v.1.15,2017-04-23 13:36:00,
2017-04-23 09:41:00,50.5,49.1,29.12,North,32767,0.0,0.0,95,0.00,,,0.60,79,Wunderground v.1.15,2017-04-23 13:41:00,
2017-04-23 09:46:00,50.6,49.2,29.12,North,32767,0.0,0.0,95,0.00,,,0.60,79,Wunderground v.1.15,2017-04-23 13:46:00,
2017-04-23 09:51:00,50.6,49.2,29.12,North,32767,0.0,0.0,95,0.00,,,0.60,97,Wunderground v.1.15,2017-04-23 13:51:00,
2017-04-23 09:58:00,50.6,49.2,29.12,North,32767,0.0,0.0,95,0.00,,,0.60,90,Wunderground v.1.15,2017-04-23 13:58:00,
2017-04-23 10:03:00,50.7,49.3,29.12,North,32767,0.0,0.0,95,0.00,,,0.60,81,Wunderground v.1.15,2017-04-23 14:03:00,
2017-04-23 10:08:00,50.8,49.4,29.12,North,32767,0.0,0.0,95,0.00,,,0.60,84,Wunderground v.1.15,2017-04-23 14:08:00,
2017-04-23 10:14:00,50.8,49.4,29.11,North,32767,0.0,0.0,95,0.00,,,0.60,86,Wunderground v.1.15,2017-04-23 14:14:00,
2017-04-23 10:20:00,50.7,49.3,29.12,North,32767,0.0,0.0,95,0.00,,,0.60,83,Wunderground v.1.15,2017-04-23 14:20:00,
2017-04-23 10:26:00,50.8,49.4,29.11,North,32767,0.0,0.0,95,0.00,,,0.60,111,Wunderground v.1.15,2017-04-23 14:26:00,
2017-04-23 10:31:00,51.0,49.9,29.13,North,32767,0.0,0.0,96,0.00,,,0.61,76,Wunderground v.1.15,2017-04-23 14:31:00,
2017-04-23 10:38:00,51.0,49.6,29.13,North,32767,0.0,0.0,95,0.00,,,0.61,79,Wunderground v.1.15,2017-04-23 14:38:00,
2017-04-23 10:43:00,51.0,49.6,29.12,North,32767,0.0,0.0,95,0.00,,,0.61,72,Wunderground v.1.15,2017-04-23 14:43:00,
2017-04-23 10:48:00,51.0,49.6,29.11,North,32767,0.0,0.0,95,0.00,,,0.61,65,Wunderground v.1.15,2017-04-23 14:48:00,
2017-04-23 10:53:00,51.0,49.6,29.11,North,32767,0.0,0.0,95,0.00,,,0.61,79,Wunderground v.1.15,2017-04-23 14:53:00,
2017-04-23 10:59:00,51.1,49.7,29.11,North,32767,0.0,0.0,95,0.00,,,0.61,70,Wunderground v.1.15,2017-04-23 14:59:00,
2017-04-23 11:04:00,50.9,49.5,29.12,North,32767,0.0,0.0,95,0.00,,,0.62,54,Wunderground v.1.15,2017-04-23 15:04:00,
2017-04-23 11:10:00,50.9,49.5,29.13,North,32767,0.0,0.0,95,0.12,,,0.63,54,Wunderground v.1.15,2017-04-23 15:10:00,
2017-04-23 11:16:00,50.8,49.4,29.15,North,32767,0.0,0.0,95,0.06,,,0.63,19,Wunderground v.1.15,2017-04-23 15:16:00,
2017-04-23 11:21:00,50.8,49.4,29.15,North,32767,0.0,0.0,95,0.05,,,0.64,19,Wunderground v.1.15,2017-04-23 15:21:00,
2017-04-23 11:26:00,50.8,49.4,29.15,North,32767,0.0,0.0,95,0.33,,,0.67,23,Wunderground v.1.15,2017-04-23 15:26:00,
2017-04-23 11:32:00,50.8,49.4,29.14,North,32767,0.0,0.0,95,0.40,,,0.70,39,Wunderground v.1.15,2017-04-23 15:32:00,
2017-04-23 11:37:00,50.7,49.3,29.13,North,32767,0.0,0.0,95,0.40,,,0.74,74,Wunderground v.1.15,2017-04-23 15:37:00,
2017-04-23 11:43:00,50.7,49.3,29.13,North,32767,0.0,0.0,95,0.34,,,0.77,62,Wunderground v.1.15,2017-04-23 15:43:00,
2017-04-23 11:48:00,50.8,49.4,29.13,North,32767,0.0,0.0,95,0.32,,,0.80,79,Wunderground v.1.15,2017-04-23 15:48:00,
2017-04-23 11:54:00,51.0,49.9,29.13,North,32767,0.0,0.0,96,0.26,,,0.82,62,Wunderground v.1.15,2017-04-23 15:54:00,
2017-04-23 12:00:00,51.0,49.9,29.12,North,32767,0.0,0.0,96,0.22,,,0.85,69,Wunderground v.1.15,2017-04-23 16:00:00,
2017-04-23 12:05:00,51.1,50.0,29.12,North,32767,0.0,0.0,96,0.16,,,0.86,62,Wunderground v.1.15,2017-04-23 16:05:00,